Year,Month,Day,Hour,Minute,Value (Times are PST for temperature in C)
2017,06,26,00,00,22.70
2017,06,26,00,01,22.70
2017,06,26,00,02,22.70
2017,06,26,00,03,22.70
2017,06,26,00,04,22.70
2017,06,26,00,05,22.70
2017,06,26,00,06,22.70
2017,06,26,00,07,22.60
2017,06,26,00,08,22.60
2017,06,26,00,09,22.60
2017,06,26,00,10,22.60
2017,06,26,00,11,22.50
2017,06,26,00,12,22.50
2017,06,26,00,13,22.50
2017,06,26,00,14,22.50
2017,06,26,00,15,22.40
2017,06,26,00,16,22.40
2017,06,26,00,17,22.40
2017,06,26,00,18,22.40
2017,06,26,00,19,22.40
2017,06,26,00,20,22.30
2017,06,26,00,21,22.30
2017,06,26,00,22,22.30
2017,06,26,00,23,22.20
2017,06,26,00,24,22.20
2017,06,26,00,25,22.20
2017,06,26,00,26,22.20
2017,06,26,00,27,22.10
2017,06,26,00,28,22.10
2017,06,26,00,29,22.10
2017,06,26,00,30,22.00
2017,06,26,00,31,22.00
2017,06,26,00,32,22.00
2017,06,26,00,33,22.00
2017,06,26,00,34,21.90
2017,06,26,00,35,21.90
2017,06,26,00,36,21.90
2017,06,26,00,37,21.80
2017,06,26,00,38,21.80
2017,06,26,00,39,21.80
2017,06,26,00,40,21.80
2017,06,26,00,41,21.80
2017,06,26,00,42,21.70
2017,06,26,00,43,21.70
2017,06,26,00,44,21.70
2017,06,26,00,45,21.70
2017,06,26,00,46,21.60
2017,06,26,00,47,21.60
2017,06,26,00,48,21.60
2017,06,26,00,49,21.60
2017,06,26,00,50,21.60
2017,06,26,00,51,21.60
2017,06,26,00,52,21.60
2017,06,26,00,53,21.60
2017,06,26,00,54,21.60
2017,06,26,00,55,21.60
2017,06,26,00,56,21.60
2017,06,26,00,57,21.60
2017,06,26,00,58,21.60
2017,06,26,00,59,21.60
2017,06,26,01,00,21.60
2017,06,26,01,01,21.60
2017,06,26,01,02,21.60
2017,06,26,01,03,21.60
2017,06,26,01,04,21.60
2017,06,26,01,05,21.60
2017,06,26,01,06,21.60
2017,06,26,01,07,21.60
2017,06,26,01,08,21.60
2017,06,26,01,09,21.60
2017,06,26,01,10,21.50
2017,06,26,01,11,21.40
2017,06,26,01,12,21.40
2017,06,26,01,13,21.40
2017,06,26,01,14,21.40
2017,06,26,01,15,21.30
2017,06,26,01,16,21.30
2017,06,26,01,17,21.30
2017,06,26,01,18,21.30
2017,06,26,01,19,21.30
2017,06,26,01,20,21.20
2017,06,26,01,21,21.20
2017,06,26,01,22,21.10
2017,06,26,01,23,21.10
2017,06,26,01,24,21.00
2017,06,26,01,25,21.00
2017,06,26,01,26,20.90
2017,06,26,01,27,20.90
2017,06,26,01,28,20.80
2017,06,26,01,29,20.80
2017,06,26,01,30,20.70
2017,06,26,01,31,20.70
2017,06,26,01,32,20.60
2017,06,26,01,33,20.60
2017,06,26,01,34,20.50
2017,06,26,01,35,20.50
2017,06,26,01,36,20.50
2017,06,26,01,37,20.40
2017,06,26,01,38,20.40
2017,06,26,01,39,20.40
2017,06,26,01,40,20.30
2017,06,26,01,41,20.30
2017,06,26,01,42,20.30
2017,06,26,01,43,20.20
2017,06,26,01,44,20.20
2017,06,26,01,45,20.20
2017,06,26,01,46,20.20
2017,06,26,01,47,20.20
2017,06,26,01,48,20.20
2017,06,26,01,49,20.10
2017,06,26,01,50,20.10
2017,06,26,01,51,20.10
2017,06,26,01,52,20.00
2017,06,26,01,53,19.90
2017,06,26,01,54,19.90
2017,06,26,01,55,19.90
2017,06,26,01,56,19.90
2017,06,26,01,57,19.90
2017,06,26,01,58,19.90
2017,06,26,01,59,19.90
2017,06,26,02,00,19.80
2017,06,26,02,01,19.80
2017,06,26,02,02,19.80
2017,06,26,02,03,19.80
2017,06,26,02,04,19.70
2017,06,26,02,05,19.70
2017,06,26,02,06,19.60
2017,06,26,02,07,19.60
2017,06,26,02,08,19.60
2017,06,26,02,09,19.50
2017,06,26,02,10,19.50
2017,06,26,02,11,19.50
2017,06,26,02,12,19.40
2017,06,26,02,13,19.40
2017,06,26,02,14,19.40
2017,06,26,02,15,19.30
2017,06,26,02,16,19.30
2017,06,26,02,17,19.30
2017,06,26,02,18,19.20
2017,06,26,02,19,19.20
2017,06,26,02,20,19.20
2017,06,26,02,21,19.10
2017,06,26,02,22,19.10
2017,06,26,02,23,19.10
2017,06,26,02,24,19.10
2017,06,26,02,25,19.10
2017,06,26,02,26,19.10
2017,06,26,02,27,19.10
2017,06,26,02,28,19.00
2017,06,26,02,29,18.90
2017,06,26,02,30,18.90
2017,06,26,02,31,18.90
2017,06,26,02,32,18.90
2017,06,26,02,33,18.80
2017,06,26,02,34,18.80
2017,06,26,02,35,18.70
2017,06,26,02,36,18.70
2017,06,26,02,37,18.60
2017,06,26,02,38,18.50
2017,06,26,02,39,18.50
2017,06,26,02,40,18.40
2017,06,26,02,41,18.40
2017,06,26,02,42,18.30
2017,06,26,02,43,18.30
2017,06,26,02,44,18.30
2017,06,26,02,45,18.20
2017,06,26,02,46,18.20
2017,06,26,02,47,18.20
2017,06,26,02,48,18.20
2017,06,26,02,49,18.20
2017,06,26,02,50,18.20
2017,06,26,02,51,18.20
2017,06,26,02,52,18.20
2017,06,26,02,53,18.20
2017,06,26,02,54,18.10
2017,06,26,02,55,18.10
2017,06,26,02,56,18.00
2017,06,26,02,57,17.90
2017,06,26,02,58,17.90
2017,06,26,02,59,17.80
2017,06,26,03,00,17.80
2017,06,26,03,01,17.80
2017,06,26,03,02,17.70
2017,06,26,03,03,17.70
2017,06,26,03,04,17.70
2017,06,26,03,05,17.70
2017,06,26,03,06,17.70
2017,06,26,03,07,17.70
2017,06,26,03,08,17.70
2017,06,26,03,09,17.70
2017,06,26,03,10,17.70
2017,06,26,03,11,17.70
2017,06,26,03,12,17.70
2017,06,26,03,13,17.70
2017,06,26,03,14,17.70
2017,06,26,03,15,17.70
2017,06,26,03,16,17.70
2017,06,26,03,17,17.70
2017,06,26,03,18,17.60
2017,06,26,03,19,17.60
2017,06,26,03,20,17.50
2017,06,26,03,21,17.50
2017,06,26,03,22,17.50
2017,06,26,03,23,17.40
2017,06,26,03,24,17.40
2017,06,26,03,25,17.40
2017,06,26,03,26,17.30
2017,06,26,03,27,17.30
2017,06,26,03,28,17.30
2017,06,26,03,29,17.30
2017,06,26,03,30,17.40
2017,06,26,03,31,17.40
2017,06,26,03,32,17.40
2017,06,26,03,33,17.40
2017,06,26,03,34,17.30
2017,06,26,03,35,17.30
2017,06,26,03,36,17.30
2017,06,26,03,37,17.30
2017,06,26,03,38,17.30
2017,06,26,03,39,17.30
2017,06,26,03,40,17.30
2017,06,26,03,41,17.30
2017,06,26,03,42,17.20
2017,06,26,03,43,17.20
2017,06,26,03,44,17.20
2017,06,26,03,45,17.20
2017,06,26,03,46,17.20
2017,06,26,03,47,17.20
2017,06,26,03,48,17.20
2017,06,26,03,49,17.20
2017,06,26,03,50,17.10
2017,06,26,03,51,17.10
2017,06,26,03,52,17.10
2017,06,26,03,53,17.10
2017,06,26,03,54,17.10
2017,06,26,03,55,17.10
2017,06,26,03,56,17.00
2017,06,26,03,57,17.00
2017,06,26,03,58,17.00
2017,06,26,03,59,17.00
2017,06,26,04,00,17.00
2017,06,26,04,01,17.00
2017,06,26,04,02,16.90
2017,06,26,04,03,16.90
2017,06,26,04,04,16.90
2017,06,26,04,05,16.90
2017,06,26,04,06,16.90
2017,06,26,04,07,16.80
2017,06,26,04,08,16.80
2017,06,26,04,09,16.80
2017,06,26,04,10,16.80
2017,06,26,04,11,16.70
2017,06,26,04,12,16.70
2017,06,26,04,13,16.70
2017,06,26,04,14,16.70
2017,06,26,04,15,16.70
2017,06,26,04,16,16.70
2017,06,26,04,17,16.70
2017,06,26,04,18,16.70
2017,06,26,04,19,16.60
2017,06,26,04,20,16.60
2017,06,26,04,21,16.60
2017,06,26,04,22,16.40
2017,06,26,04,23,16.40
2017,06,26,04,24,16.40
2017,06,26,04,25,16.40
2017,06,26,04,26,16.30
2017,06,26,04,27,16.30
2017,06,26,04,28,16.30
2017,06,26,04,29,16.20
2017,06,26,04,30,16.20
2017,06,26,04,31,16.20
2017,06,26,04,32,16.20
2017,06,26,04,33,16.20
2017,06,26,04,34,16.10
2017,06,26,04,35,16.10
2017,06,26,04,36,16.10
2017,06,26,04,37,16.10
2017,06,26,04,38,16.10
2017,06,26,04,39,16.10
2017,06,26,04,40,16.10
2017,06,26,04,41,16.10
2017,06,26,04,42,16.20
2017,06,26,04,43,16.20
2017,06,26,04,44,16.20
2017,06,26,04,45,16.20
2017,06,26,04,46,16.20
2017,06,26,04,47,16.20
2017,06,26,04,48,16.20
2017,06,26,04,49,16.20
2017,06,26,04,50,16.20
2017,06,26,04,51,16.20
2017,06,26,04,52,16.20
2017,06,26,04,53,16.20
2017,06,26,04,54,16.20
2017,06,26,04,55,16.20
2017,06,26,04,56,16.10
2017,06,26,04,57,16.10
2017,06,26,04,58,16.10
2017,06,26,04,59,16.10
2017,06,26,05,00,16.10
2017,06,26,05,01,16.10
2017,06,26,05,02,16.10
2017,06,26,05,03,16.10
2017,06,26,05,04,16.10
2017,06,26,05,05,16.10
2017,06,26,05,06,16.00
2017,06,26,05,07,15.90
2017,06,26,05,08,15.90
2017,06,26,05,09,15.90
2017,06,26,05,10,15.90
2017,06,26,05,11,15.90
2017,06,26,05,12,15.90
2017,06,26,05,13,15.80
2017,06,26,05,14,15.80
2017,06,26,05,15,15.80
2017,06,26,05,16,15.80
2017,06,26,05,17,15.80
2017,06,26,05,18,15.80
2017,06,26,05,19,15.80
2017,06,26,05,20,15.80
2017,06,26,05,21,15.80
2017,06,26,05,22,15.80
2017,06,26,05,23,15.80
2017,06,26,05,24,15.80
2017,06,26,05,25,15.80
2017,06,26,05,26,15.80
2017,06,26,05,27,15.80
2017,06,26,05,28,15.80
2017,06,26,05,29,15.80
2017,06,26,05,30,15.80
2017,06,26,05,31,15.80
2017,06,26,05,32,15.80
2017,06,26,05,33,15.70
2017,06,26,05,34,15.70
2017,06,26,05,35,15.70
2017,06,26,05,36,15.70
2017,06,26,05,37,15.70
2017,06,26,05,38,15.70
2017,06,26,05,39,15.70
2017,06,26,05,40,15.70
2017,06,26,05,41,15.60
2017,06,26,05,42,15.60
2017,06,26,05,43,15.60
2017,06,26,05,44,15.60
2017,06,26,05,45,15.60
2017,06,26,05,46,15.60
2017,06,26,05,47,15.60
2017,06,26,05,48,15.60
2017,06,26,05,49,15.60
2017,06,26,05,50,15.60
2017,06,26,05,51,15.60
2017,06,26,05,52,15.60
2017,06,26,05,53,15.60
2017,06,26,05,54,15.60
2017,06,26,05,55,15.60
2017,06,26,05,56,15.60
2017,06,26,05,57,15.70
2017,06,26,05,58,15.70
2017,06,26,05,59,15.70
2017,06,26,06,00,15.70
2017,06,26,06,01,15.70
2017,06,26,06,02,15.70
2017,06,26,06,03,15.70
2017,06,26,06,04,15.60
2017,06,26,06,05,15.60
2017,06,26,06,06,15.60
2017,06,26,06,07,15.60
2017,06,26,06,08,15.50
2017,06,26,06,09,15.50
2017,06,26,06,10,15.50
2017,06,26,06,11,15.50
2017,06,26,06,12,15.40
2017,06,26,06,13,15.40
2017,06,26,06,14,15.40
2017,06,26,06,15,15.30
2017,06,26,06,16,15.30
2017,06,26,06,17,15.30
2017,06,26,06,18,15.30
2017,06,26,06,19,15.30
2017,06,26,06,20,15.30
2017,06,26,06,21,15.30
2017,06,26,06,22,15.30
2017,06,26,06,23,15.20
2017,06,26,06,24,15.20
2017,06,26,06,25,15.20
2017,06,26,06,26,15.20
2017,06,26,06,27,15.10
2017,06,26,06,28,15.10
2017,06,26,06,29,15.10
2017,06,26,06,30,15.10
2017,06,26,06,31,15.10
2017,06,26,06,32,15.00
2017,06,26,06,33,15.00
2017,06,26,06,34,15.00
2017,06,26,06,35,15.00
2017,06,26,06,36,14.90
2017,06,26,06,37,14.90
2017,06,26,06,38,14.90
2017,06,26,06,39,14.90
2017,06,26,06,40,14.80
2017,06,26,06,41,14.80
2017,06,26,06,42,14.80
2017,06,26,06,43,14.80
2017,06,26,06,44,14.80
2017,06,26,06,45,14.80
2017,06,26,06,46,14.80
2017,06,26,06,47,14.80
2017,06,26,06,48,14.80
2017,06,26,06,49,14.80
2017,06,26,06,50,14.80
2017,06,26,06,51,14.80
2017,06,26,06,52,14.70
2017,06,26,06,53,14.70
2017,06,26,06,54,14.70
2017,06,26,06,55,14.70
2017,06,26,06,56,14.60
2017,06,26,06,57,14.60
2017,06,26,06,58,14.60
2017,06,26,06,59,14.60
2017,06,26,07,00,14.60
2017,06,26,07,01,14.50
2017,06,26,07,02,14.50
2017,06,26,07,03,14.40
2017,06,26,07,04,14.40
2017,06,26,07,05,14.30
2017,06,26,07,06,14.30
2017,06,26,07,07,14.30
2017,06,26,07,08,14.20
2017,06,26,07,09,14.20
2017,06,26,07,10,14.20
2017,06,26,07,11,14.20
2017,06,26,07,12,14.20
2017,06,26,07,13,14.20
2017,06,26,07,14,14.20
2017,06,26,07,15,14.20
2017,06,26,07,16,14.20
2017,06,26,07,17,14.20
2017,06,26,07,18,14.20
2017,06,26,07,19,14.20
2017,06,26,07,20,14.20
2017,06,26,07,21,14.20
2017,06,26,07,22,14.20
2017,06,26,07,23,14.20
2017,06,26,07,24,14.20
2017,06,26,07,25,14.20
2017,06,26,07,26,14.20
2017,06,26,07,27,14.20
2017,06,26,07,28,14.20
2017,06,26,07,29,14.20
2017,06,26,07,30,14.20
2017,06,26,07,31,14.30
2017,06,26,07,32,14.30
2017,06,26,07,33,14.30
2017,06,26,07,34,14.30
2017,06,26,07,35,14.40
2017,06,26,07,36,14.40
2017,06,26,07,37,14.40
2017,06,26,07,38,14.50
2017,06,26,07,39,14.50
2017,06,26,07,40,14.50
2017,06,26,07,41,14.60
2017,06,26,07,42,14.60
2017,06,26,07,43,14.70
2017,06,26,07,44,14.70
2017,06,26,07,45,14.70
2017,06,26,07,46,14.70
2017,06,26,07,47,14.70
2017,06,26,07,48,14.70
2017,06,26,07,49,14.70
2017,06,26,07,50,14.70
2017,06,26,07,51,14.70
2017,06,26,07,52,14.80
2017,06,26,07,53,14.80
2017,06,26,07,54,14.80
2017,06,26,07,55,14.80
2017,06,26,07,56,14.70
2017,06,26,07,57,14.70
2017,06,26,07,58,14.70
2017,06,26,07,59,14.70
2017,06,26,08,00,14.70
2017,06,26,08,01,14.70
2017,06,26,08,02,14.70
2017,06,26,08,03,14.70
2017,06,26,08,04,14.70
2017,06,26,08,05,14.70
2017,06,26,08,06,14.70
2017,06,26,08,07,14.70
2017,06,26,08,08,14.60
2017,06,26,08,09,14.60
2017,06,26,08,10,14.60
2017,06,26,08,11,14.60
2017,06,26,08,12,14.60
2017,06,26,08,13,14.60
2017,06,26,08,14,14.70
2017,06,26,08,15,14.70
2017,06,26,08,16,14.80
2017,06,26,08,17,14.80
2017,06,26,08,18,14.90
2017,06,26,08,19,14.90
2017,06,26,08,20,15.00
2017,06,26,08,21,15.10
2017,06,26,08,22,15.20
2017,06,26,08,23,15.20
2017,06,26,08,24,15.30
2017,06,26,08,25,15.30
2017,06,26,08,26,15.40
2017,06,26,08,27,15.50
2017,06,26,08,28,15.50
2017,06,26,08,29,15.60
2017,06,26,08,30,15.60
2017,06,26,08,31,15.60
2017,06,26,08,32,15.50
2017,06,26,08,33,15.50
2017,06,26,08,34,15.50
2017,06,26,08,35,15.50
2017,06,26,08,36,15.50
2017,06,26,08,37,15.50
2017,06,26,08,38,15.60
2017,06,26,08,39,15.70
2017,06,26,08,40,15.80
2017,06,26,08,41,15.80
2017,06,26,08,42,15.90
2017,06,26,08,43,15.90
2017,06,26,08,44,16.10
2017,06,26,08,45,16.20
2017,06,26,08,46,16.20
2017,06,26,08,47,16.40
2017,06,26,08,48,16.50
2017,06,26,08,49,16.60
2017,06,26,08,50,16.70
2017,06,26,08,51,16.70
2017,06,26,08,52,16.80
2017,06,26,08,53,16.90
2017,06,26,08,54,17.00
2017,06,26,08,55,17.10
2017,06,26,08,56,17.10
2017,06,26,08,57,17.20
2017,06,26,08,58,17.30
2017,06,26,08,59,17.30
2017,06,26,09,00,17.40
2017,06,26,09,01,17.50
2017,06,26,09,02,17.60
2017,06,26,09,03,17.70
2017,06,26,09,04,17.80
2017,06,26,09,05,17.90
2017,06,26,09,06,17.90
2017,06,26,09,07,17.90
2017,06,26,09,08,18.00
2017,06,26,09,09,17.90
2017,06,26,09,10,17.90
2017,06,26,09,11,17.90
2017,06,26,09,12,17.70
2017,06,26,09,13,17.70
2017,06,26,09,14,17.60
2017,06,26,09,15,17.50
2017,06,26,09,16,17.40
2017,06,26,09,17,17.40
2017,06,26,09,18,17.30
2017,06,26,09,19,17.30
2017,06,26,09,20,17.30
2017,06,26,09,21,17.20
2017,06,26,09,22,17.20
2017,06,26,09,23,17.10
2017,06,26,09,24,17.00
2017,06,26,09,25,16.90
2017,06,26,09,26,16.80
2017,06,26,09,27,16.70
2017,06,26,09,28,16.60
2017,06,26,09,29,16.40
2017,06,26,09,30,16.20
2017,06,26,09,31,16.10
2017,06,26,09,32,16.00
2017,06,26,09,33,15.90
2017,06,26,09,34,15.80
2017,06,26,09,35,15.80
2017,06,26,09,36,15.80
2017,06,26,09,37,15.80
2017,06,26,09,38,15.80
2017,06,26,09,39,15.80
2017,06,26,09,40,15.80
2017,06,26,09,41,15.80
2017,06,26,09,42,15.80
2017,06,26,09,43,15.80
2017,06,26,09,44,15.80
2017,06,26,09,45,15.80
2017,06,26,09,46,15.80
2017,06,26,09,47,15.70
2017,06,26,09,48,15.70
2017,06,26,09,49,15.70
2017,06,26,09,50,15.70
2017,06,26,09,51,15.80
2017,06,26,09,52,15.80
2017,06,26,09,53,15.80
2017,06,26,09,54,15.80
2017,06,26,09,55,15.90
2017,06,26,09,56,16.10
2017,06,26,09,57,16.10
2017,06,26,09,58,16.10
2017,06,26,09,59,16.10
2017,06,26,10,00,16.10
2017,06,26,10,01,16.10
2017,06,26,10,02,15.90
2017,06,26,10,03,16.00
2017,06,26,10,04,16.10
2017,06,26,10,05,16.10
2017,06,26,10,06,16.10
2017,06,26,10,07,16.20
2017,06,26,10,08,16.20
2017,06,26,10,09,16.30
2017,06,26,10,10,16.30
2017,06,26,10,11,16.30
2017,06,26,10,12,16.40
2017,06,26,10,13,16.40
2017,06,26,10,14,16.50
2017,06,26,10,15,16.60
2017,06,26,10,16,16.70
2017,06,26,10,17,16.70
2017,06,26,10,18,16.90
2017,06,26,10,19,17.00
2017,06,26,10,20,17.20
2017,06,26,10,21,17.30
2017,06,26,10,22,17.40
2017,06,26,10,23,17.40
2017,06,26,10,24,17.50
2017,06,26,10,25,17.50
2017,06,26,10,26,17.40
2017,06,26,10,27,17.50
2017,06,26,10,28,17.60
2017,06,26,10,29,17.70
2017,06,26,10,30,17.80
2017,06,26,10,31,17.90
2017,06,26,10,32,17.90
2017,06,26,10,33,18.00
2017,06,26,10,34,18.20
2017,06,26,10,35,18.20
2017,06,26,10,36,18.20
2017,06,26,10,37,18.20
2017,06,26,10,38,18.20
2017,06,26,10,39,18.20
2017,06,26,10,40,18.10
2017,06,26,10,41,18.00
2017,06,26,10,42,17.90
2017,06,26,10,43,17.80
2017,06,26,10,44,17.80
2017,06,26,10,45,17.70
2017,06,26,10,46,17.70
2017,06,26,10,47,17.80
2017,06,26,10,48,17.80
2017,06,26,10,49,17.90
2017,06,26,10,50,17.90
2017,06,26,10,51,17.90
2017,06,26,10,52,17.90
2017,06,26,10,53,17.90
2017,06,26,10,54,17.90
2017,06,26,10,55,17.90
2017,06,26,10,56,17.90
2017,06,26,10,57,17.80
2017,06,26,10,58,17.80
2017,06,26,10,59,17.80
2017,06,26,11,00,17.90
2017,06,26,11,01,17.90
2017,06,26,11,02,18.10
2017,06,26,11,03,18.20
2017,06,26,11,04,18.30
2017,06,26,11,05,18.40
2017,06,26,11,06,18.50
2017,06,26,11,07,18.60
2017,06,26,11,08,18.70
2017,06,26,11,09,18.70
2017,06,26,11,10,18.70
2017,06,26,11,11,18.70
2017,06,26,11,12,18.70
2017,06,26,11,13,18.80
2017,06,26,11,14,18.90
2017,06,26,11,15,18.90
2017,06,26,11,16,18.90
2017,06,26,11,17,18.90
2017,06,26,11,18,18.90
2017,06,26,11,19,18.90
2017,06,26,11,20,18.80
2017,06,26,11,21,18.90
2017,06,26,11,22,18.90
2017,06,26,11,23,18.90
2017,06,26,11,24,18.90
2017,06,26,11,25,18.90
2017,06,26,11,26,19.00
2017,06,26,11,27,19.10
2017,06,26,11,28,19.10
2017,06,26,11,29,19.10
2017,06,26,11,30,19.10
2017,06,26,11,31,19.10
2017,06,26,11,32,19.10
2017,06,26,11,33,19.20
2017,06,26,11,34,19.10
2017,06,26,11,35,19.20
2017,06,26,11,36,19.20
2017,06,26,11,37,19.30
2017,06,26,11,38,19.40
2017,06,26,11,39,19.60
2017,06,26,11,40,19.70
2017,06,26,11,41,19.90
2017,06,26,11,42,20.00
2017,06,26,11,43,20.10
2017,06,26,11,44,20.10
2017,06,26,11,45,20.20
2017,06,26,11,46,20.20
2017,06,26,11,47,20.20
2017,06,26,11,48,20.20
2017,06,26,11,49,20.20
2017,06,26,11,50,20.30
2017,06,26,11,51,20.20
2017,06,26,11,52,20.10
2017,06,26,11,53,20.00
2017,06,26,11,54,19.90
2017,06,26,11,55,19.90
2017,06,26,11,56,19.90
2017,06,26,11,57,19.90
2017,06,26,11,58,19.90
2017,06,26,11,59,19.90
2017,06,26,12,00,19.90
2017,06,26,12,01,19.90
2017,06,26,12,02,19.90
2017,06,26,12,03,19.90
2017,06,26,12,04,19.90
2017,06,26,12,05,19.90
2017,06,26,12,06,19.90
2017,06,26,12,07,20.00
2017,06,26,12,08,20.10
2017,06,26,12,09,20.10
2017,06,26,12,10,20.10
2017,06,26,12,11,20.20
2017,06,26,12,12,20.20
2017,06,26,12,13,20.30
2017,06,26,12,14,20.40
2017,06,26,12,15,20.40
2017,06,26,12,16,20.40
2017,06,26,12,17,20.40
2017,06,26,12,18,20.40
2017,06,26,12,19,20.40
2017,06,26,12,20,20.40
2017,06,26,12,21,20.30
2017,06,26,12,22,20.30
2017,06,26,12,23,20.40
2017,06,26,12,24,20.40
2017,06,26,12,25,20.30
2017,06,26,12,26,20.30
2017,06,26,12,27,20.30
2017,06,26,12,28,20.30
2017,06,26,12,29,20.30
2017,06,26,12,30,20.30
2017,06,26,12,31,20.30
2017,06,26,12,32,20.30
2017,06,26,12,33,20.40
2017,06,26,12,34,20.40
2017,06,26,12,35,20.40
2017,06,26,12,36,20.40
2017,06,26,12,37,20.40
2017,06,26,12,38,20.40
2017,06,26,12,39,20.60
2017,06,26,12,40,20.60
2017,06,26,12,41,20.70
2017,06,26,12,42,20.70
2017,06,26,12,43,20.80
2017,06,26,12,44,20.80
2017,06,26,12,45,20.90
2017,06,26,12,46,20.90
2017,06,26,12,47,20.90
2017,06,26,12,48,20.90
2017,06,26,12,49,21.00
2017,06,26,12,50,21.10
2017,06,26,12,51,21.20
2017,06,26,12,52,21.20
2017,06,26,12,53,21.20
2017,06,26,12,54,21.10
2017,06,26,12,55,21.10
2017,06,26,12,56,21.10
2017,06,26,12,57,21.10
2017,06,26,12,58,21.10
2017,06,26,12,59,21.10
2017,06,26,13,00,21.10
2017,06,26,13,01,21.20
2017,06,26,13,02,21.20
2017,06,26,13,03,21.30
2017,06,26,13,04,21.40
2017,06,26,13,05,21.50
2017,06,26,13,06,21.60
2017,06,26,13,07,21.60
2017,06,26,13,08,21.70
2017,06,26,13,09,21.70
2017,06,26,13,10,21.60
2017,06,26,13,11,21.60
2017,06,26,13,12,21.70
2017,06,26,13,13,21.70
2017,06,26,13,14,21.80
2017,06,26,13,15,21.80
2017,06,26,13,16,21.90
2017,06,26,13,17,21.90
2017,06,26,13,18,21.90
2017,06,26,13,19,21.90
2017,06,26,13,20,21.90
2017,06,26,13,21,22.00
2017,06,26,13,22,21.90
2017,06,26,13,23,22.00
2017,06,26,13,24,22.10
2017,06,26,13,25,22.10
2017,06,26,13,26,22.20
2017,06,26,13,27,22.30
2017,06,26,13,28,22.20
2017,06,26,13,29,22.20
2017,06,26,13,30,22.20
2017,06,26,13,31,22.10
2017,06,26,13,32,22.10
2017,06,26,13,33,22.00
2017,06,26,13,34,22.10
2017,06,26,13,35,22.00
2017,06,26,13,36,21.80
2017,06,26,13,37,21.70
2017,06,26,13,38,21.70
2017,06,26,13,39,21.80
2017,06,26,13,40,21.80
2017,06,26,13,41,21.80
2017,06,26,13,42,21.70
2017,06,26,13,43,21.80
2017,06,26,13,44,21.80
2017,06,26,13,45,21.70
2017,06,26,13,46,21.70
2017,06,26,13,47,21.70
2017,06,26,13,48,21.80
2017,06,26,13,49,21.90
2017,06,26,13,50,21.90
2017,06,26,13,51,22.00
2017,06,26,13,52,21.90
2017,06,26,13,53,21.90
2017,06,26,13,54,21.90
2017,06,26,13,55,22.00
2017,06,26,13,56,22.00
2017,06,26,13,57,22.00
2017,06,26,13,58,22.10
2017,06,26,13,59,22.00
2017,06,26,14,00,21.90
2017,06,26,14,01,21.90
2017,06,26,14,02,22.00
2017,06,26,14,03,22.10
2017,06,26,14,04,22.20
2017,06,26,14,05,22.30
2017,06,26,14,06,22.30
2017,06,26,14,07,22.20
2017,06,26,14,08,22.20
2017,06,26,14,09,22.20
2017,06,26,14,10,22.10
2017,06,26,14,11,22.20
2017,06,26,14,12,22.30
2017,06,26,14,13,22.40
2017,06,26,14,14,22.40
2017,06,26,14,15,22.40
2017,06,26,14,16,22.40
2017,06,26,14,17,22.50
2017,06,26,14,18,22.40
2017,06,26,14,19,22.30
2017,06,26,14,20,22.20
2017,06,26,14,21,22.00
2017,06,26,14,22,21.80
2017,06,26,14,23,21.90
2017,06,26,14,24,22.00
2017,06,26,14,25,22.00
2017,06,26,14,26,22.00
2017,06,26,14,27,22.10
2017,06,26,14,28,22.20
2017,06,26,14,29,22.30
2017,06,26,14,30,22.40
2017,06,26,14,31,22.50
2017,06,26,14,32,22.60
2017,06,26,14,33,22.60
2017,06,26,14,34,22.70
2017,06,26,14,35,22.80
2017,06,26,14,36,22.90
2017,06,26,14,37,22.90
2017,06,26,14,38,22.90
2017,06,26,14,39,22.80
2017,06,26,14,40,22.70
2017,06,26,14,41,22.70
2017,06,26,14,42,22.70
2017,06,26,14,43,22.70
2017,06,26,14,44,22.70
2017,06,26,14,45,22.70
2017,06,26,14,46,22.80
2017,06,26,14,47,22.80
2017,06,26,14,48,22.80
2017,06,26,14,49,22.80
2017,06,26,14,50,22.90
2017,06,26,14,51,22.90
2017,06,26,14,52,22.80
2017,06,26,14,53,22.80
2017,06,26,14,54,22.80
2017,06,26,14,55,22.70
2017,06,26,14,56,22.60
2017,06,26,14,57,22.60
2017,06,26,14,58,22.60
2017,06,26,14,59,22.70
2017,06,26,15,00,22.80
2017,06,26,15,01,22.80
2017,06,26,15,02,22.80
2017,06,26,15,03,22.90
2017,06,26,15,04,22.90
2017,06,26,15,05,23.00
2017,06,26,15,06,23.10
2017,06,26,15,07,23.00
2017,06,26,15,08,22.90
2017,06,26,15,09,22.80
2017,06,26,15,10,22.60
2017,06,26,15,11,22.60
2017,06,26,15,12,22.50
2017,06,26,15,13,22.50
2017,06,26,15,14,22.50
2017,06,26,15,15,22.40
2017,06,26,15,16,22.40
2017,06,26,15,17,22.40
2017,06,26,15,18,22.50
2017,06,26,15,19,22.50
2017,06,26,15,20,22.60
2017,06,26,15,21,22.70
2017,06,26,15,22,22.90
2017,06,26,15,23,22.90
2017,06,26,15,24,23.00
2017,06,26,15,25,23.20
2017,06,26,15,26,23.30
2017,06,26,15,27,23.40
2017,06,26,15,28,23.40
2017,06,26,15,29,23.40
2017,06,26,15,30,23.40
2017,06,26,15,31,23.40
2017,06,26,15,32,23.20
2017,06,26,15,33,23.10
2017,06,26,15,34,23.00
2017,06,26,15,35,22.90
2017,06,26,15,36,22.70
2017,06,26,15,37,22.60
2017,06,26,15,38,22.50
2017,06,26,15,39,22.40
2017,06,26,15,40,22.40
2017,06,26,15,41,22.30
2017,06,26,15,42,22.40
2017,06,26,15,43,22.40
2017,06,26,15,44,22.40
2017,06,26,15,45,22.40
2017,06,26,15,46,22.40
2017,06,26,15,47,22.40
2017,06,26,15,48,22.50
2017,06,26,15,49,22.50
2017,06,26,15,50,22.50
2017,06,26,15,51,22.60
2017,06,26,15,52,22.60
2017,06,26,15,53,22.60
2017,06,26,15,54,22.60
2017,06,26,15,55,22.70
2017,06,26,15,56,22.70
2017,06,26,15,57,22.80
2017,06,26,15,58,22.90
2017,06,26,15,59,22.80
2017,06,26,16,00,22.80
2017,06,26,16,01,22.90
2017,06,26,16,02,22.90
2017,06,26,16,03,22.90
2017,06,26,16,04,23.00
2017,06,26,16,05,23.10
2017,06,26,16,06,23.10
2017,06,26,16,07,23.20
2017,06,26,16,08,23.20
2017,06,26,16,09,23.20
2017,06,26,16,10,23.30
2017,06,26,16,11,23.30
2017,06,26,16,12,23.30
2017,06,26,16,13,23.30
2017,06,26,16,14,23.20
2017,06,26,16,15,23.20
2017,06,26,16,16,23.20
2017,06,26,16,17,23.20
2017,06,26,16,18,23.10
2017,06,26,16,19,23.10
2017,06,26,16,20,23.20
2017,06,26,16,21,23.20
2017,06,26,16,22,23.10
2017,06,26,16,23,23.10
2017,06,26,16,24,23.00
2017,06,26,16,25,22.90
2017,06,26,16,26,22.90
2017,06,26,16,27,23.10
2017,06,26,16,28,23.10
2017,06,26,16,29,23.10
2017,06,26,16,30,23.30
2017,06,26,16,31,23.30
2017,06,26,16,32,23.40
2017,06,26,16,33,23.50
2017,06,26,16,34,23.60
2017,06,26,16,35,23.70
2017,06,26,16,36,23.70
2017,06,26,16,37,23.80
2017,06,26,16,38,23.90
2017,06,26,16,39,23.90
2017,06,26,16,40,24.00
2017,06,26,16,41,23.90
2017,06,26,16,42,23.90
2017,06,26,16,43,23.70
2017,06,26,16,44,23.60
2017,06,26,16,45,23.40
2017,06,26,16,46,23.30
2017,06,26,16,47,23.30
2017,06,26,16,48,23.30
2017,06,26,16,49,23.30
2017,06,26,16,50,23.30
2017,06,26,16,51,23.30
2017,06,26,16,52,23.30
2017,06,26,16,53,23.20
2017,06,26,16,54,23.20
2017,06,26,16,55,23.20
2017,06,26,16,56,23.20
2017,06,26,16,57,23.20
2017,06,26,16,58,23.10
2017,06,26,16,59,23.00
2017,06,26,17,00,22.90
2017,06,26,17,01,23.00
2017,06,26,17,02,23.10
2017,06,26,17,03,23.10
2017,06,26,17,04,23.20
2017,06,26,17,05,23.20
2017,06,26,17,06,23.20
2017,06,26,17,07,23.10
2017,06,26,17,08,23.10
2017,06,26,17,09,23.10
2017,06,26,17,10,23.10
2017,06,26,17,11,23.20
2017,06,26,17,12,23.20
2017,06,26,17,13,23.20
2017,06,26,17,14,23.30
2017,06,26,17,15,23.40
2017,06,26,17,16,23.50
2017,06,26,17,17,23.50
2017,06,26,17,18,23.40
2017,06,26,17,19,23.40